SCP
3 3 2 1 1 0 0 0 0 0 0 0 0 1 1 2 2 2 2 1 1 1 1 1 1 0 0 0 0 0 0 0 0 0 0 0 0 0 0 0 0 0 0
2 2 2 1 0 0 0 0 0 0 0 0 0 1 1 2 2 2 1 1 1 1 1 1 1 0 0 0 0 0 0 0 0 0 0 0 0 0 0 0 0 0 0
2 2 2 1 0 0 0 0 0 0 0 0 0 0 1 1 1 1 1 1 1 1 0 0 0 0 0 0 0 0 0 0 0 0 0 0 0 0 0 0 0 0 0
2 2 2 1 0 0 0 0 0 0 0 0 0 0 1 1 1 1 1 1 1 0 0 0 0 0 0 0 0 0 0 0 0 0 0 0 0 0 0 0 0 0 0
3 3 2 1 0 0 0 0 0 0 0 0 0 0 0 0 0 0 1 1 0 0 0 0 0 0 0 0 0 0 0 0 0 0 0 0 0 0 0 0 0 0 0
3 3 2 1 0 0 0 0 0 0 0 0 0 0 0 0 0 0 0 0 0 0 0 0 0 0 0 0 0 0 0 0 0 0 0 0 0 0 0 0 0 0 0
3 2 1 1 0 0 0 0 0 0 0 0 0 0 0 0 0 0 0 0 0 0 0 0 0 0 0 0 0 0 0 0 0 0 0 0 0 0 0 0 0 0 0
2 2 1 1 0 0 0 0 0 0 0 0 0 0 0 0 0 0 0 0 0 0 0 0 0 0 0 0 0 0 0 0 0 0 0 0 0 0 0 0 0 0 0
1 1 1 1 0 0 0 0 0 0 0 0 0 0 0 0 0 0 0 0 0 0 0 0 0 0 0 0 0 0 0 0 0 0 0 0 0 0 0 0 0 0 0
1 1 1 1 0 0 0 0 0 0 0 0 0 0 0 0 0 0 0 0 0 0 0 0 0 0 0 0 0 0 0 0 0 0 0 0 0 0 0 0 0 0 0
1 1 1 1 0 0 0 0 0 0 0 0 0 0 0 0 0 0 0 0 0 0 0 0 0 0 0 0 0 0 0 0 0 0 0 0 0 0 0 0 0 0 0
1 1 1 0 0 0 0 0 0 0 0 0 0 0 0 0 0 0 0 0 0 0 0 0 0 0 0 0 0 0 0 0 0 0 0 0 0 0 0 0 0 0 0
0 1 0 0 0 0 0 0 0 0 0 0 0 0 0 0 0 0 0 0 0 0 0 0 0 0 0 0 0 0 0 0 0 0 0 0 0 0 0 0 0 0 0
0 0 0 0 0 0 0 0 0 0 0 0 0 0 0 0 0 0 0 0 0 0 0 0 0 0 0 0 0 0 0 0 0 0 0 0 0 0 0 0 0 0 0
0 0 0 0 0 0 0 0 0 0 0 0 0 0 0 0 0 0 0 0 0 0 0 0 0 0 0 0 0 0 0 0 0 0 0 0 0 0 0 0 0 0 0
0 0 0 0 0 0 0 0 0 0 0 0 0 0 0 0 0 0 0 0 0 0 0 0 0 0 0 0 0 0 0 0 0 0 0 0 0 0 0 0 0 0 0
0 0 0 0 0 0 0 0 0 0 0 0 0 0 0 0 0 0 0 0 0 0 0 0 0 0 0 0 0 0 0 0 0 0 0 0 0 0 0 0 0 0 0
0 0 0 0 0 0 0 0 0 0 0 0 0 0 0 0 0 0 0 0 0 0 0 0 0 0 0 0 0 0 0 0 0 0 0 0 0 0 0 0 0 0 0
0 0 0 0 0 0 0 0 0 0 0 0 0 0 0 0 0 0 0 0 0 0 0 0 0 0 0 0 0 0 0 0 0 0 0 0 0 0 0 0 0 0 0
0 0 0 0 0 0 0 0 0 0 0 0 0 0 0 0 0 0 0 0 0 0 0 0 0 0 0 0 0 0 0 0 0 0 0 0 0 0 0 0 0 0 0
0 0 0 0 0 0 0 0 0 0 0 0 0 0 0 0 0 0 0 0 0 0 0 0 0 0 0 0 0 0 0 0 0 0 0 0 0 0 0 0 0 0 0
0 0 0 0 0 0 0 0 0 0 0 0 0 0 0 0 0 0 0 0 0 0 0 0 0 0 0 0 0 0 0 0 0 0 0 0 0 0 0 0 0 0 0
0 0 0 0 0 0 0 0 0 0 0 0 0 0 0 0 0 0 0 0 0 0 0 0 0 0 0 0 0 0 0 0 0 0 0 0 0 0 0 0 0 0 0
0 0 0 0 0 0 0 0 0 0 0 0 0 0 0 0 0 0 0 0 0 0 0 0 0 0 0 0 0 0 0 0 0 0 0 0 0 0 0 0 0 0 0
0 0 0 0 0 0 0 0 0 0 0 0 0 0 0 0 0 0 0 0 0 0 0 0 0 0 0 0 0 0 0 0 0 0 0 0 0 0 0 0 0 0 0
0 0 0 0 0 0 0 0 0 0 0 0 0 0 0 0 0 0 0 0 0 0 0 0 0 0 0 0 0 0 0 0 0 0 0 0 0 0 0 0 0 0 0
Wind_Speed
4 3 3 2 1 0 1 2 3 4 5 6 6 6 5 3 2 1 1 0 1 2 4 6 6 6 4 4 4 4 3 4 5 2 2 3 4 5 4 4 3 3 2
5 4 4 3 2 1 1 2 3 4 5 5 6 5 5 3 2 1 2 4 5 5 5 7 7 7 7 5 5 5 4 4 6 5 3 4 5 4 4 4 4 3 2
6 5 4 4 3 2 2 2 2 3 4 5 5 5 4 4 3 4 6 7 8 8 8 8 8 9 9 6 6 5 4 6 5 6 3 3 3 3 4 4 5 3 3
6 6 5 5 4 4 3 2 2 2 3 4 4 4 4 4 4 5 6 7 8 9 9 8 8 8 8 7 7 6 7 8 7 6 4 3 3 3 3 4 4 4 3
7 7 7 6 5 4 3 3 2 1 2 3 3 4 4 3 4 5 6 8 9 9 8 8 8 10 10 7 7 6 7 7 6 5 4 3 3 3 3 3 3 3 3
8 8 7 6 6 5 5 3 2 1 0 1 2 3 4 4 5 7 7 7 7 8 8 7 8 9 10 12 11 10 9 8 6 4 3 3 2 2 2 2 2 3 4
9 8 7 7 7 7 6 5 4 2 1 1 1 2 3 4 6 8 9 7 7 6 6 6 7 6 7 7 9 11 10 9 7 5 4 2 1 0 1 3 2 2 2
9 8 8 8 8 7 7 6 5 3 3 3 2 2 3 3 7 8 10 7 7 6 6 7 7 5 5 7 7 7 6 6 5 4 3 1 1 2 2 1 1 2 3
8 9 9 9 9 8 8 8 6 4 4 3 3 4 4 3 6 8 8 6 6 6 5 6 7 6 8 10 8 7 6 4 5 7 6 5 4 4 3 3 4 4 3
8 9 9 10 10 10 10 8 5 5 5 5 4 4 5 4 5 8 9 5 6 5 4 4 7 8 9 10 7 7 6 3 4 5 7 7 6 6 6 3 2 2 1
8 7 8 9 10 10 9 7 7 6 6 5 5 4 5 5 6 8 8 5 6 5 4 3 3 8 10 10 7 5 4 3 4 5 5 4 4 4 4 3 1 2 1
10 8 8 9 9 9 9 8 8 8 7 6 5 4 3 4 5 6 9 8 8 6 5 3 3 7 8 8 6 6 7 7 4 5 4 4 3 3 3 3 4 2 1
11 10 8 8 8 8 10 10 8 8 7 6 6 6 4 3 4 7 8 9 10 5 5 8 7 7 6 4 5 7 6 5 4 4 3 2 1 1 2 3 5 5 4
11 11 8 7 7 8 8 8 9 9 8 8 7 7 5 4 4 4 3 4 7 6 4 5 6 5 4 3 3 4 3 3 3 3 2 1 2 3 3 3 3 3 4
10 9 8 6 7 8 8 9 11 10 12 11 9 8 8 7 9 11 8 6 5 6 6 3 2 2 1 1 2 2 2 3 3 2 2 2 2 3 2 2 2 2 3
8 8 6 5 6 7 7 6 8 8 14 15 13 11 9 11 14 15 14 13 12 12 7 4 3 3 3 3 3 2 2 2 3 3 3 2 2 1 2 2 2 2 2
7 8 6 6 5 6 8 9 7 4 8 14 16 16 13 14 16 17 15 14 13 12 5 4 4 4 3 4 4 4 4 3 3 4 3 2 2 1 1 1 2 2 2
8 8 7 6 5 6 8 9 9 9 7 5 7 13 15 16 17 17 15 11 6 5 4 4 4 4 4 4 5 4 4 4 3 4 3 3 2 2 1 1 1 1 1
7 6 5 5 5 6 7 9 9 10 9 7 4 4 9 12 13 15 15 6 7 6 5 4 5 5 4 5 5 5 5 5 4 4 4 4 3 3 2 1 2 2 2
7 9 7 5 5 5 7 8 9 9 9 9 8 7 7 7 5 7 6 5 6 6 6 6 5 5 5 5 5 5 5 5 5 4 4 4 4 3 3 3 3 2 1
6 6 9 6 5 5 6 9 9 10 10 10 9 10 15 11 11 11 10 7 7 7 7 6 6 5 5 5 5 6 7 6 6 6 5 5 4 3 3 3 3 3 2
5 5 5 5 5 5 5 7 9 10 11 11 7 9 15 9 9 9 9 9 7 7 7 6 6 6 6 7 7 7 7 6 6 6 6 5 5 4 4 4 4 3 3
5 5 5 5 5 5 6 6 8 10 10 11 10 10 11 9 8 9 10 9 7 6 6 6 6 5 5 6 7 8 8 8 8 8 8 6 5 5 5 5 5 5 3
5 5 5 5 4 5 5 6 8 9 10 11 11 11 11 11 10 10 9 8 7 7 6 6 7 8 10 7 6 6 7 8 8 8 11 9 8 6 6 5 5 6 5
5 5 5 5 4 4 4 6 8 9 10 10 11 11 11 11 10 9 8 8 9 8 9 8 7 8 11 12 10 9 10 12 11 9 9 9 9 9 8 7 6 5 4
5 6 5 4 4 3 4 5 7 9 9 9 10 11 11 11 10 10 9 8 8 8 9 8 10 11 11 11 13 13 12 12 12 12 9 8 9 8 8 7 8 6 6
Wind_Direction
179 174 161 173 194 274 314 311 314 316 320 324 327 324 317 310 316 315 309 97 130 137 152 145 133 119 116 112 111 107 105 113 115 83 43 39 48 38 17 18 27 26 352
182 176 175 175 175 199 281 301 313 318 321 323 325 331 336 332 349 42 80 78 75 78 98 113 112 106 98 96 95 95 94 100 116 109 59 38 41 33 26 26 15 10 351
182 178 177 179 182 202 232 271 298 314 324 332 339 342 355 6 33 61 75 75 78 77 74 86 98 101 93 89 89 88 88 91 95 105 84 43 32 23 22 12 9 358 355
184 180 186 195 195 199 207 234 277 304 326 338 343 352 9 24 54 72 85 86 84 81 77 76 81 90 95 95 91 90 94 92 90 92 80 45 25 359 29 12 358 347 348
185 189 198 199 193 187 192 212 246 297 332 344 355 14 24 35 76 95 94 98 94 90 84 79 78 83 86 89 97 96 98 97 92 89 80 56 27 20 10 345 354 331 333
192 198 197 191 190 190 194 199 209 247 331 22 27 29 35 46 78 93 100 96 96 97 93 87 80 70 77 82 89 92 101 107 107 100 89 79 39 12 350 358 4 11 340
199 199 194 191 194 195 192 189 194 196 172 138 93 72 66 62 84 101 107 107 105 104 101 93 87 76 74 82 79 74 75 88 110 121 113 121 115 7 27 16 14 16 298
203 202 199 194 195 193 188 192 194 185 179 170 158 140 110 93 95 97 100 98 95 94 97 101 98 79 83 96 89 75 65 63 77 92 126 159 177 185 159 159 263 330 318
216 210 203 196 194 191 191 195 191 179 180 175 164 154 142 122 111 112 108 99 96 92 94 99 101 92 96 99 94 86 65 38 52 64 77 83 74 87 104 61 33 36 354
246 228 208 194 192 193 194 190 182 176 181 172 165 164 158 154 141 129 124 115 109 105 91 88 99 106 101 99 99 96 79 37 34 48 49 45 44 44 55 76 97 75 7
286 257 220 199 194 193 188 181 175 174 172 170 168 168 165 165 154 142 137 133 139 136 129 120 115 115 105 102 102 97 101 103 78 76 62 42 29 24 22 24 51 121 119
302 274 235 208 198 192 182 181 176 172 172 173 168 168 170 170 166 154 148 151 152 144 151 153 149 131 111 103 96 89 89 91 82 72 61 42 29 12 354 3 16 31 129
306 288 257 222 202 185 180 180 176 175 176 177 174 176 178 175 176 171 157 155 156 147 158 163 158 138 107 87 77 81 83 85 86 80 72 43 345 336 3 11 9 12 12
303 291 268 232 207 192 183 178 178 180 181 181 180 180 175 170 172 168 159 148 147 135 134 150 142 120 94 77 63 71 86 106 117 117 120 62 23 29 27 23 18 7 14
301 291 273 246 215 197 189 186 185 189 187 182 185 179 175 184 195 178 165 165 162 154 129 100 93 94 92 71 68 85 92 97 107 113 103 75 47 38 16 10 29 33 32
298 297 282 259 230 201 188 185 196 188 189 186 181 176 188 190 178 179 179 175 168 154 134 138 157 167 172 170 158 146 136 137 142 133 116 106 89 67 27 10 29 40 22
278 282 280 260 236 208 188 180 178 181 184 189 187 184 183 179 176 179 181 175 169 155 141 160 171 179 181 175 171 167 170 170 157 143 137 133 121 99 78 34 19 26 12
267 274 273 261 241 217 196 185 180 176 173 181 197 196 188 178 177 177 168 146 154 170 168 170 180 182 177 175 176 173 169 162 156 155 153 149 138 124 105 77 59 60 27
264 264 261 260 246 224 201 186 180 180 177 167 148 169 185 176 171 169 159 159 168 181 186 181 181 182 181 178 176 174 172 171 169 165 167 166 160 145 136 133 120 95 84
257 267 269 257 249 227 203 187 180 177 175 173 174 165 149 139 155 172 186 182 176 182 184 185 186 186 183 180 176 172 172 173 172 171 175 175 172 160 155 153 142 128 120
255 265 270 259 243 230 209 190 181 178 177 179 180 174 169 173 179 182 189 192 188 188 187 186 187 188 187 182 178 177 178 181 181 179 178 178 173 167 162 157 151 141 133
246 250 253 244 240 233 219 195 181 180 180 177 168 169 178 179 178 183 191 198 196 192 186 182 187 191 189 186 183 181 183 185 184 182 180 178 173 166 158 154 150 144 140
249 252 252 241 238 230 218 199 184 183 181 177 172 166 177 191 186 189 194 197 193 193 188 183 188 197 199 192 189 186 188 193 190 182 176 174 172 168 162 159 158 152 152
253 255 255 246 236 224 211 198 188 184 180 177 174 173 180 190 192 195 195 194 193 195 193 192 198 205 205 200 196 197 197 193 184 181 174 172 173 170 164 161 161 160 157
257 256 254 246 238 225 208 197 189 183 180 178 178 179 181 188 193 195 194 193 193 198 202 202 205 210 211 208 203 203 202 195 188 179 174 171 171 170 166 163 161 159 159
257 254 250 241 232 223 208 198 188 181 177 176 178 180 181 186 192 195 193 192 195 201 206 209 212 212 212 210 210 205 198 194 191 182 173 169 168 169 165 163 163 163 161